User: anonymous   Login
Location: Unspecified
(0.0000°N, 0.0000°E)
Time: 04:18:42
(UTC+00:00)
Language:

CHUBUSAT 1 - Orbit

View from above orbital plane
View from above orbital plane
View from above satellite
View from above satellite

Ground track
Ground track

The orbit data is extracted from the following two-line orbital elements,

1 40300U 14070C   24110.69852824  .00047977  00000-0  98899-3 0  9991
2 40300  97.0910 152.8753 0010010 260.1952  99.8168 15.45700871525633
Epoch (UTC): 19 April 2024 16:45:52
Eccentricity: 0.0010010
inclination: 97.0910°
perigee height: 422 km
apogee height: 436 km
right ascension of ascending node: 152.8753°
argument of perigee: 260.1952°
revolutions per day: 15.45700871
mean anomaly at epoch: 99.8168°
orbit number at epoch: 52563

The dashed part of the orbit path shows where the satellite is in the earth's shadow,  

DLR